Time,TemperatureF,DewpointF,PressureIn,WindDirection,WindDirectionDegrees,WindSpeedMPH,WindSpeedGustMPH,Humidity,HourlyPrecipIn,Conditions,Clouds,dailyrainin,SoftwareType,DateUTC
2013-03-03 00:01:00,56.0,36.0,29.62,SSW,205,0.0,-999.0,47,-99.99,,,-99.99,,2013-03-03 08:01:00,
2013-03-03 00:11:00,56.0,36.0,29.62,SSW,205,0.0,-999.0,47,-99.99,,,-99.99,,2013-03-03 08:11:00,
2013-03-03 00:21:00,55.0,36.0,29.62,SSE,159,0.0,-999.0,48,-99.99,,,-99.99,,2013-03-03 08:21:00,
2013-03-03 00:31:00,56.0,36.0,29.62,South,190,0.0,-999.0,46,-99.99,,,-99.99,,2013-03-03 08:31:00,
2013-03-03 00:41:00,56.0,36.0,29.62,South,190,0.0,-999.0,46,-99.99,,,-99.99,,2013-03-03 08:41:00,
2013-03-03 00:53:00,56.0,36.0,29.63,WSW,253,0.0,-999.0,46,-99.99,,,-99.99,,2013-03-03 08:53:00,
2013-03-03 01:01:00,56.0,37.0,29.63,WNW,291,1.0,-999.0,48,-99.99,,,-99.99,,2013-03-03 09:01:00,
2013-03-03 01:11:00,56.0,37.0,29.63,WNW,291,1.0,-999.0,48,-99.99,,,-99.99,,2013-03-03 09:11:00,
2013-03-03 01:21:00,56.0,35.0,29.63,WNW,289,0.0,-999.0,45,-99.99,,,-99.99,,2013-03-03 09:21:00,
2013-03-03 01:31:00,57.0,37.0,29.63,WNW,303,1.0,-999.0,47,-99.99,,,-99.99,,2013-03-03 09:31:00,
2013-03-03 01:41:00,57.0,37.0,29.63,WNW,303,1.0,-999.0,47,-99.99,,,-99.99,,2013-03-03 09:41:00,
2013-03-03 01:52:00,56.0,37.0,29.63,WNW,286,4.0,-999.0,48,-99.99,,,-99.99,,2013-03-03 09:52:00,
2013-03-03 02:01:00,55.0,37.0,29.63,WNW,294,2.0,-999.0,51,-99.99,,,-99.99,,2013-03-03 10:01:00,
2013-03-03 02:11:00,55.0,37.0,29.63,WNW,294,2.0,-999.0,51,-99.99,,,-99.99,,2013-03-03 10:11:00,
2013-03-03 02:21:00,54.0,38.0,29.64,NW,308,2.0,-999.0,55,-99.99,,,-99.99,,2013-03-03 10:21:00,
2013-03-03 02:31:00,53.0,40.0,29.63,West,269,5.0,-999.0,61,-99.99,,,-99.99,,2013-03-03 10:31:00,
2013-03-03 02:41:00,53.0,40.0,29.63,West,269,5.0,-999.0,61,-99.99,,,-99.99,,2013-03-03 10:41:00,
2013-03-03 02:52:00,53.0,41.0,29.62,SW,233,8.0,-999.0,63,-99.99,,,-99.99,,2013-03-03 10:52:00,
2013-03-03 03:01:00,52.0,41.0,29.62,WSW,253,3.0,-999.0,65,-99.99,,,-99.99,,2013-03-03 11:01:00,
2013-03-03 03:11:00,52.0,41.0,29.62,WSW,253,3.0,-999.0,65,-99.99,,,-99.99,,2013-03-03 11:11:00,
2013-03-03 03:21:00,52.0,40.0,29.61,SW,215,2.0,-999.0,63,-99.99,,,-99.99,,2013-03-03 11:21:00,
2013-03-03 03:31:00,53.0,39.0,29.61,SW,225,0.0,-999.0,58,-99.99,,,-99.99,,2013-03-03 11:31:00,
2013-03-03 03:41:00,53.0,39.0,29.61,SW,225,0.0,-999.0,58,-99.99,,,-99.99,,2013-03-03 11:41:00,
2013-03-03 03:52:00,53.0,38.0,29.62,ENE,72,0.0,-999.0,57,-99.99,,,-99.99,,2013-03-03 11:52:00,
2013-03-03 04:01:00,50.0,42.0,29.62,ENE,57,1.0,-999.0,75,-99.99,,,-99.99,,2013-03-03 12:01:00,
2013-03-03 04:11:00,50.0,42.0,29.62,ENE,57,1.0,-999.0,75,-99.99,,,-99.99,,2013-03-03 12:11:00,
2013-03-03 04:21:00,50.0,42.0,29.62,ENE,64,1.0,-999.0,73,-99.99,,,-99.99,,2013-03-03 12:21:00,
2013-03-03 04:31:00,50.0,41.0,29.62,NE,56,0.0,-999.0,71,-99.99,,,-99.99,,2013-03-03 12:31:00,
2013-03-03 04:42:00,50.0,41.0,29.62,NE,56,0.0,-999.0,71,-99.99,,,-99.99,,2013-03-03 12:42:00,
2013-03-03 04:52:00,50.0,40.0,29.62,West,263,0.0,-999.0,69,-99.99,,,-99.99,,2013-03-03 12:52:00,
2013-03-03 05:01:00,51.0,41.0,29.61,West,262,0.0,-999.0,68,-99.99,,,-99.99,,2013-03-03 13:01:00,
2013-03-03 05:11:00,51.0,41.0,29.61,West,262,0.0,-999.0,68,-99.99,,,-99.99,,2013-03-03 13:11:00,
2013-03-03 05:21:00,51.0,41.0,29.62,NNE,16,0.0,-999.0,69,-99.99,,,-99.99,,2013-03-03 13:21:00,
2013-03-03 05:31:00,51.0,40.0,29.61,NW,323,0.0,-999.0,67,-99.99,,,-99.99,,2013-03-03 13:31:00,
2013-03-03 05:41:00,51.0,40.0,29.61,NW,323,0.0,-999.0,67,-99.99,,,-99.99,,2013-03-03 13:41:00,
2013-03-03 05:52:00,51.0,40.0,29.62,NW,324,0.0,-999.0,67,-99.99,,,-99.99,,2013-03-03 13:52:00,
2013-03-03 06:01:00,51.0,41.0,29.62,NW,323,0.0,-999.0,68,-99.99,,,-99.99,,2013-03-03 14:01:00,
2013-03-03 06:11:00,51.0,41.0,29.62,NW,323,0.0,-999.0,68,-99.99,,,-99.99,,2013-03-03 14:11:00,
2013-03-03 06:21:00,51.0,41.0,29.62,NW,324,0.0,-999.0,69,-99.99,,,-99.99,,2013-03-03 14:21:00,
2013-03-03 06:31:00,51.0,42.0,29.62,WNW,302,0.0,-999.0,71,-99.99,,,-99.99,,2013-03-03 14:31:00,
2013-03-03 06:42:00,51.0,42.0,29.62,WNW,302,0.0,-999.0,71,-99.99,,,-99.99,,2013-03-03 14:42:00,
2013-03-03 06:52:00,51.0,41.0,29.62,WNW,291,1.0,-999.0,69,-99.99,,,-99.99,,2013-03-03 14:52:00,
2013-03-03 07:01:00,51.0,41.0,29.62,West,259,0.0,-999.0,69,-99.99,,,-99.99,,2013-03-03 15:01:00,
2013-03-03 07:11:00,51.0,41.0,29.62,West,259,0.0,-999.0,69,-99.99,,,-99.99,,2013-03-03 15:11:00,
2013-03-03 07:22:00,51.0,40.0,29.62,WSW,248,0.0,-999.0,67,-99.99,,,-99.99,,2013-03-03 15:22:00,
2013-03-03 07:31:00,52.0,39.0,29.62,WNW,282,0.0,-999.0,62,-99.99,,,-99.99,,2013-03-03 15:31:00,
2013-03-03 07:41:00,52.0,39.0,29.62,WNW,282,0.0,-999.0,62,-99.99,,,-99.99,,2013-03-03 15:41:00,
2013-03-03 07:52:00,53.0,39.0,29.63,NW,314,0.0,-999.0,60,-99.99,,,-99.99,,2013-03-03 15:52:00,
2013-03-03 08:01:00,53.0,40.0,29.63,West,269,0.0,-999.0,61,-99.99,,,-99.99,,2013-03-03 16:01:00,
2013-03-03 08:11:00,53.0,40.0,29.63,West,269,0.0,-999.0,61,-99.99,,,-99.99,,2013-03-03 16:11:00,
2013-03-03 08:21:00,54.0,39.0,29.63,WNW,302,0.0,-999.0,57,-99.99,,,-99.99,,2013-03-03 16:21:00,
2013-03-03 08:31:00,55.0,41.0,29.63,NW,305,0.0,-999.0,59,-99.99,,,-99.99,,2013-03-03 16:31:00,
2013-03-03 08:41:00,55.0,41.0,29.63,NW,305,0.0,-999.0,59,-99.99,,,-99.99,,2013-03-03 16:41:00,
2013-03-03 08:52:00,55.0,43.0,29.63,NNE,12,0.0,-999.0,64,-99.99,,,-99.99,,2013-03-03 16:52:00,
2013-03-03 09:01:00,55.0,42.0,29.63,North,9,0.0,-999.0,62,-99.99,,,-99.99,,2013-03-03 17:01:00,
2013-03-03 09:11:00,56.0,44.0,29.63,North,355,0.0,-999.0,65,-99.99,,,-99.99,,2013-03-03 17:11:00,
2013-03-03 09:21:00,56.0,44.0,29.63,North,355,0.0,-999.0,65,-99.99,,,-99.99,,2013-03-03 17:21:00,
2013-03-03 09:32:00,56.0,44.0,29.64,NNW,334,1.0,-999.0,64,-99.99,,,-99.99,,2013-03-03 17:32:00,
2013-03-03 09:41:00,56.0,44.0,29.64,NNW,334,1.0,-999.0,64,-99.99,,,-99.99,,2013-03-03 17:41:00,
2013-03-03 09:52:00,55.0,44.0,29.64,NNW,329,1.0,-999.0,67,-99.99,,,-99.99,,2013-03-03 17:52:00,
2013-03-03 10:01:00,54.0,43.0,29.65,NW,319,1.0,-999.0,66,-99.99,,,-99.99,,2013-03-03 18:01:00,
2013-03-03 10:11:00,54.0,43.0,29.65,NW,319,1.0,-999.0,66,-99.99,,,-99.99,,2013-03-03 18:11:00,
2013-03-03 10:21:00,54.0,42.0,29.64,NNE,30,3.0,-999.0,63,-99.99,,,-99.99,,2013-03-03 18:21:00,
2013-03-03 10:31:00,56.0,44.0,29.64,WNW,291,3.0,-999.0,63,-99.99,,,-99.99,,2013-03-03 18:31:00,
2013-03-03 10:41:00,56.0,44.0,29.64,WNW,291,3.0,-999.0,63,-99.99,,,-99.99,,2013-03-03 18:41:00,
2013-03-03 10:52:00,57.0,41.0,29.65,NNW,332,3.0,-999.0,56,-99.99,,,-99.99,,2013-03-03 18:52:00,
2013-03-03 11:01:00,57.0,43.0,29.65,North,349,4.0,-999.0,60,-99.99,,,-99.99,,2013-03-03 19:01:00,
2013-03-03 11:11:00,57.0,43.0,29.65,North,349,4.0,-999.0,60,-99.99,,,-99.99,,2013-03-03 19:11:00,
2013-03-03 11:21:00,57.0,43.0,29.65,NNW,333,3.0,-999.0,59,-99.99,,,-99.99,,2013-03-03 19:21:00,
2013-03-03 11:31:00,57.0,43.0,29.65,NNE,24,4.0,-999.0,59,-99.99,,,-99.99,,2013-03-03 19:31:00,
2013-03-03 11:42:00,57.0,43.0,29.65,NNE,24,4.0,-999.0,59,-99.99,,,-99.99,,2013-03-03 19:42:00,
2013-03-03 11:52:00,57.0,44.0,29.64,NNE,13,3.0,-999.0,62,-99.99,,,-99.99,,2013-03-03 19:52:00,
2013-03-03 12:01:00,56.0,43.0,29.64,North,5,4.0,-999.0,61,-99.99,,,-99.99,,2013-03-03 20:01:00,
2013-03-03 12:11:00,56.0,43.0,29.64,North,5,4.0,-999.0,61,-99.99,,,-99.99,,2013-03-03 20:11:00,
2013-03-03 12:21:00,57.0,44.0,29.64,North,355,2.0,-999.0,61,-99.99,,,-99.99,,2013-03-03 20:21:00,
2013-03-03 12:32:00,57.0,43.0,29.63,NE,36,3.0,-999.0,59,-99.99,,,-99.99,,2013-03-03 20:32:00,
2013-03-03 12:42:00,57.0,43.0,29.63,NE,36,3.0,-999.0,59,-99.99,,,-99.99,,2013-03-03 20:42:00,
2013-03-03 12:52:00,57.0,42.0,29.63,SE,125,2.0,-999.0,58,-99.99,,,-99.99,,2013-03-03 20:52:00,
2013-03-03 13:01:00,57.0,43.0,29.62,NNE,24,4.0,-999.0,59,-99.99,,,-99.99,,2013-03-03 21:01:00,
2013-03-03 13:11:00,57.0,43.0,29.62,NNE,24,4.0,-999.0,59,-99.99,,,-99.99,,2013-03-03 21:11:00,
2013-03-03 13:21:00,57.0,43.0,29.62,NNE,18,4.0,-999.0,59,-99.99,,,-99.99,,2013-03-03 21:21:00,
2013-03-03 13:31:00,57.0,44.0,29.62,WNW,288,2.0,-999.0,61,-99.99,,,-99.99,,2013-03-03 21:31:00,
2013-03-03 13:41:00,57.0,44.0,29.62,WNW,288,2.0,-999.0,61,-99.99,,,-99.99,,2013-03-03 21:41:00,
2013-03-03 13:52:00,57.0,42.0,29.62,North,5,3.0,-999.0,58,-99.99,,,-99.99,,2013-03-03 21:52:00,
2013-03-03 14:01:00,56.0,42.0,29.62,North,10,5.0,-999.0,59,-99.99,,,-99.99,,2013-03-03 22:01:00,
2013-03-03 14:11:00,56.0,42.0,29.62,North,10,5.0,-999.0,59,-99.99,,,-99.99,,2013-03-03 22:11:00,
2013-03-03 14:21:00,56.0,43.0,29.61,ENE,63,2.0,-999.0,62,-99.99,,,-99.99,,2013-03-03 22:21:00,
2013-03-03 14:31:00,56.0,44.0,29.62,NNE,27,1.0,-999.0,63,-99.99,,,-99.99,,2013-03-03 22:31:00,
2013-03-03 14:41:00,56.0,44.0,29.62,NNE,27,1.0,-999.0,63,-99.99,,,-99.99,,2013-03-03 22:41:00,
2013-03-03 14:52:00,56.0,44.0,29.62,North,360,2.0,-999.0,64,-99.99,,,-99.99,,2013-03-03 22:52:00,
2013-03-03 15:01:00,56.0,44.0,29.62,North,355,1.0,-999.0,65,-99.99,,,-99.99,,2013-03-03 23:01:00,
2013-03-03 15:11:00,56.0,44.0,29.62,North,355,1.0,-999.0,65,-99.99,,,-99.99,,2013-03-03 23:11:00,
2013-03-03 15:21:00,56.0,45.0,29.62,North,360,3.0,-999.0,67,-99.99,,,-99.99,,2013-03-03 23:21:00,
2013-03-03 15:31:00,56.0,46.0,29.61,NE,51,2.0,-999.0,68,-99.99,,,-99.99,,2013-03-03 23:31:00,
2013-03-03 15:41:00,56.0,46.0,29.61,NE,51,2.0,-999.0,68,-99.99,,,-99.99,,2013-03-03 23:41:00,
2013-03-03 15:52:00,55.0,44.0,29.61,North,355,2.0,-999.0,66,-99.99,,,-99.99,,2013-03-03 23:52:00,
2013-03-03 16:01:00,55.0,44.0,29.61,NNE,17,2.0,-999.0,66,-99.99,,,-99.99,,2013-03-04 00:01:00,
2013-03-03 16:11:00,55.0,44.0,29.61,NNE,17,2.0,-999.0,66,-99.99,,,-99.99,,2013-03-04 00:11:00,
2013-03-03 16:21:00,54.0,43.0,29.61,NE,38,1.0,-999.0,67,-99.99,,,-99.99,,2013-03-04 00:21:00,
2013-03-03 16:32:00,54.0,43.0,29.61,North,11,0.0,-999.0,67,-99.99,,,-99.99,,2013-03-04 00:32:00,
2013-03-03 16:41:00,54.0,43.0,29.61,North,11,0.0,-999.0,67,-99.99,,,-99.99,,2013-03-04 00:41:00,
2013-03-03 16:52:00,53.0,42.0,29.61,NNE,17,1.0,-999.0,66,-99.99,,,-99.99,,2013-03-04 00:52:00,
2013-03-03 17:01:00,52.0,42.0,29.61,NNE,27,1.0,-999.0,69,-99.99,,,-99.99,,2013-03-04 01:01:00,
2013-03-03 17:11:00,52.0,42.0,29.61,NNE,27,1.0,-999.0,69,-99.99,,,-99.99,,2013-03-04 01:11:00,
2013-03-03 17:21:00,51.0,42.0,29.61,North,9,0.0,-999.0,71,-99.99,,,-99.99,,2013-03-04 01:21:00,
2013-03-03 17:31:00,50.0,43.0,29.60,WNW,296,1.0,-999.0,77,-99.99,,,-99.99,,2013-03-04 01:31:00,
2013-03-03 17:42:00,50.0,43.0,29.60,WNW,296,1.0,-999.0,77,-99.99,,,-99.99,,2013-03-04 01:42:00,
2013-03-03 17:52:00,50.0,42.0,29.61,North,355,1.0,-999.0,73,-99.99,,,-99.99,,2013-03-04 01:52:00,
2013-03-03 18:01:00,49.0,41.0,29.60,WNW,288,0.0,-999.0,75,-99.99,,,-99.99,,2013-03-04 02:01:00,
2013-03-03 18:11:00,49.0,41.0,29.60,WNW,288,0.0,-999.0,75,-99.99,,,-99.99,,2013-03-04 02:11:00,
2013-03-03 18:22:00,47.0,41.0,29.60,WNW,290,0.0,-999.0,78,-99.99,,,-99.99,,2013-03-04 02:22:00,
2013-03-03 18:31:00,46.0,41.0,29.61,WSW,247,0.0,-999.0,83,-99.99,,,-99.99,,2013-03-04 02:31:00,
2013-03-03 18:41:00,46.0,41.0,29.61,WSW,247,0.0,-999.0,83,-99.99,,,-99.99,,2013-03-04 02:41:00,
2013-03-03 18:52:00,44.0,40.0,29.61,West,263,2.0,-999.0,87,-99.99,,,-99.99,,2013-03-04 02:52:00,
2013-03-03 19:01:00,43.0,40.0,29.61,WNW,284,1.0,-999.0,90,-99.99,,,-99.99,,2013-03-04 03:01:00,
2013-03-03 19:11:00,43.0,40.0,29.61,WNW,284,1.0,-999.0,90,-99.99,,,-99.99,,2013-03-04 03:11:00,
2013-03-03 19:21:00,43.0,41.0,29.61,WNW,296,2.0,-999.0,91,-99.99,,,-99.99,,2013-03-04 03:21:00,
2013-03-03 19:31:00,42.0,40.0,29.61,NW,321,2.0,-999.0,92,-99.99,,,-99.99,,2013-03-04 03:31:00,
2013-03-03 19:41:00,42.0,40.0,29.62,WNW,299,1.0,-999.0,92,-99.99,,,-99.99,,2013-03-04 03:41:00,
2013-03-03 19:52:00,42.0,40.0,29.62,WNW,299,1.0,-999.0,92,-99.99,,,-99.99,,2013-03-04 03:52:00,
2013-03-03 20:01:00,42.0,40.0,29.62,North,360,2.0,-999.0,93,-99.99,,,-99.99,,2013-03-04 04:01:00,
2013-03-03 20:11:00,42.0,40.0,29.62,North,360,2.0,-999.0,93,-99.99,,,-99.99,,2013-03-04 04:11:00,
2013-03-03 20:22:00,42.0,40.0,29.63,ENE,57,1.0,-999.0,93,-99.99,,,-99.99,,2013-03-04 04:22:00,
2013-03-03 20:31:00,42.0,40.0,29.63,ENE,57,1.0,-999.0,93,-99.99,,,-99.99,,2013-03-04 04:31:00,
2013-03-03 20:41:00,42.0,40.0,29.63,ENE,57,1.0,-999.0,93,-99.99,,,-99.99,,2013-03-04 04:41:00,
2013-03-03 20:52:00,42.0,40.0,29.64,West,273,4.0,-999.0,94,-99.99,,,-99.99,,2013-03-04 04:52:00,
2013-03-03 21:01:00,42.0,40.0,29.64,WNW,300,1.0,-999.0,94,-99.99,,,-99.99,,2013-03-04 05:01:00,
2013-03-03 21:11:00,42.0,40.0,29.64,WNW,300,1.0,-999.0,94,-99.99,,,-99.99,,2013-03-04 05:11:00,
2013-03-03 21:22:00,42.0,40.0,29.64,WNW,300,0.0,-999.0,94,-99.99,,,-99.99,,2013-03-04 05:22:00,
2013-03-03 21:31:00,42.0,40.0,29.64,ENE,69,0.0,-999.0,94,-99.99,,,-99.99,,2013-03-04 05:31:00,
2013-03-03 21:42:00,42.0,40.0,29.64,ENE,69,0.0,-999.0,94,-99.99,,,-99.99,,2013-03-04 05:42:00,
2013-03-03 21:52:00,42.0,40.0,29.64,West,280,0.0,-999.0,94,-99.99,,,-99.99,,2013-03-04 05:52:00,
2013-03-03 22:01:00,42.0,40.0,29.64,West,279,0.0,-999.0,94,-99.99,,,-99.99,,2013-03-04 06:01:00,
2013-03-03 22:11:00,42.0,40.0,29.64,West,279,0.0,-999.0,94,-99.99,,,-99.99,,2013-03-04 06:11:00,
2013-03-03 22:21:00,42.0,41.0,29.64,WSW,238,0.0,-999.0,95,-99.99,,,-99.99,,2013-03-04 06:21:00,
2013-03-03 22:31:00,42.0,41.0,29.64,NW,306,0.0,-999.0,95,-99.99,,,-99.99,,2013-03-04 06:31:00,
2013-03-03 22:42:00,42.0,41.0,29.64,NW,306,0.0,-999.0,95,-99.99,,,-99.99,,2013-03-04 06:42:00,
2013-03-03 22:51:00,42.0,41.0,29.63,NW,306,0.0,-999.0,95,-99.99,,,-99.99,,2013-03-04 06:51:00,
2013-03-03 23:01:00,41.0,39.0,29.64,NW,306,0.0,-999.0,94,-99.99,,,-99.99,,2013-03-04 07:01:00,
2013-03-03 23:11:00,41.0,39.0,29.64,NW,306,0.0,-999.0,94,-99.99,,,-99.99,,2013-03-04 07:11:00,
2013-03-03 23:21:00,41.0,40.0,29.64,NE,49,0.0,-999.0,95,-99.99,,,-99.99,,2013-03-04 07:21:00,
2013-03-03 23:31:00,41.0,40.0,29.64,NNW,348,0.0,-999.0,95,-99.99,,,-99.99,,2013-03-04 07:31:00,
2013-03-03 23:41:00,41.0,40.0,29.64,NNW,348,0.0,-999.0,95,-99.99,,,-99.99,,2013-03-04 07:41:00,
2013-03-03 23:52:00,41.0,40.0,29.64,NNW,348,0.0,-999.0,95,-99.99,,,-99.99,,2013-03-04 07:52:00,